This demonstration page uses our WeatherBlox Daily Observations layout. Learn more.

Left ArrowRight Arrow

44.8408, -93.29828

Hourly Observations for August 15, 2019

Temp ( °F °C ) Dew Point ( °F °C ) Humidity (%) Winds ( mph kmh ) Pressure ( in mb ) Visibility ( mi km ) Precip ( " mm )
12:53 am 00:53 Mostly Cloudy 69 20.6 54 12.2 59 59 SSW 3 6 30.04 1017 10 16 0.00 0.00
1:53 am 01:53 Mostly Cloudy 68 20 53 11.7 59 59 SW 3 6 30.05 1018 10 16 0.00 0.00
2:53 am 02:53 Mostly Cloudy 65 18.3 55 12.8 70 70 NNE 3 6 30.04 1017 10 16 0.00 0.00
3:53 am 03:53 Partly Cloudy 64 17.8 58 14.4 81 81 Calm 30.03 1017 10 16 0.00 0.00
4:53 am 04:53 Partly Cloudy 64 17.8 57 13.9 78 78 Calm 30.03 1017 10 16 0.00 0.00
5:53 am 05:53 Mostly Cloudy 65 18.3 54 12.2 68 68 Calm 30.04 1017 10 16 0.00 0.00
6:53 am 06:53 Mostly Sunny 64 17.8 55 12.8 73 73 Calm 30.03 1017 10 16 0.00 0.00
7:53 am 07:53 Mostly Cloudy 63 17.2 57 13.9 81 81 SE 3 6 30.04 1017 10 16 0.00 0.00
8:53 am 08:53 Mostly Cloudy 68 20 58 14.4 70 70 SE 3 6 30.02 1017 10 16 0.00 0.00
9:53 am 09:53 Mostly Sunny 71 21.7 59 15 66 66 SE 6 9 30.00 1016 10 16 0.00 0.00
10:53 am 10:53 Mostly Sunny 75 23.9 54 12.2 48 48 VRB 5 7 29.99 1016 10 16 0.00 0.00
11:53 am 11:53 Mostly Sunny 76 24.4 56 13.3 50 50 SE 6 9 29.99 1016 10 16 0.00 0.00
1:53 pm 13:53 Mostly Cloudy 77 25 58 14.4 52 52 SE 10 17 29.94 1014 10 16 0.00 0.00
2:53 pm 14:53 Partly Cloudy 79 26.1 58 14.4 49 49 S 9 15 29.92 1013 10 16 0.00 0.00
3:53 pm 15:53 Partly Cloudy 80 26.7 57 13.9 45 45 SSW 13 20 29.90 1013 10 16 0.00 0.00
4:53 pm 16:53 Mostly Cloudy 79 26.1 58 14.4 49 49 SW 9 15 29.89 1012 10 16 0.00 0.00
5:53 pm 17:53 Mostly Cloudy 79 26.1 58 14.4 49 49 SW 9 15 29.87 1012 10 16 0.00 0.00
6:53 pm 18:53 Mostly Cloudy 78 25.6 59 15 52 52 S 9 15 29.87 1012 10 16 0.00 0.00
7:25 pm 19:25 Mostly Cloudy with Rain 76 24.4 62 16.7 62 62 SSW 7 11 29.84 1011 1 1 0.00 0.00
7:29 pm 19:29 Mostly Cloudy with Heavy Rain 70 21.1 64 17.8 82 82 S 32 52 29.86 1011 0 0 0.12 3.05
7:38 pm 19:38 Mostly Cloudy with Light Rain 68 20 63 17.2 84 84 E 9 15 29.86 1011 1 2 0.34 8.64
7:41 pm 19:41 Cloudy with Light Rain 68 20 63 17.2 84 84 E 13 20 29.86 1011 4 6 0.34 8.64
7:44 pm 19:44 Cloudy with Nearby Thunderstorms 69 20.6 63 17.2 81 81 ESE 10 17 29.86 1011 10 16 0.34 8.64
7:53 pm 19:53 Cloudy with Nearby Thunderstorms 70 21.1 62 16.7 76 76 E 10 17 29.87 1011 10 16 0.34 8.64
8:10 pm 20:10 Cloudy 69 20.6 63 17.2 81 81 E 6 9 29.84 1010 10 16 0.00 0.00
8:53 pm 20:53 Cloudy 70 21.1 65 18.3 84 84 SE 9 15 29.85 1011 10 16 0.00 0.00
9:53 pm 21:53 Cloudy 68 20 64 17.8 87 87 SE 8 13 29.85 1011 10 16 0.00 0.00
10:53 pm 22:53 Cloudy 70 21.1 63 17.2 79 79 S 6 9 29.83 1010 10 16 0.00 0.00
11:53 pm 23:53 Cloudy with Light Rain 70 21.1 63 17.2 79 79 SSW 9 15 29.83 1010 10 16 0.00 0.00

Powered by AerisWeather